Meteo Giornale » Osservazioni meteo Italia » Novara-Cameri

ore: 05:55 - Osservazioni Meteo Novara-Cameri
Lat. 45° 31' N Lon. 8° 40' E Alt. 178 metri s.l.m.

sereno

18 °C

Sereno

Temp. 24 Ore

18 °C

30 °C

Nord

9.3 Km/h

Dew point 15 °C

Umidità 82 %

Visibilità  30 Km

Il sole sorge alle ore 06:49

Il sole tramonta alle ore 20:00

Data e Ora Cielo e Fenomeni T °C DP °C Um. % Pres. hPa Vis. km Vento km/h
Oggi h: 05:55 sereno Sereno 18 15 82 1019 30 N 9.3
Oggi h: 04:55 sereno Sereno 19 16 82 1018 30 N 5.5
Oggi h: 03:55 sereno Sereno 20 16 77 1019 30 N 9.3
Oggi h: 02:55 sereno Sereno 19 17 88 1019 30 N 5.5
Oggi h: 01:55 sereno Sereno 19 17 88 1018 22 N 3.7
Oggi h: 00:55 sereno Sereno 20 17 82 1018 22 N 3.7
Ieri h: 23:55 sereno Sereno 21 17 77 1018 22 N 11.1
Ieri h: 22:55 sereno Sereno 21 17 77 1018 22 N 5.5
Ieri h: 21:55 sereno Sereno 22 17 73 1017 22 N 1.8
Ieri h: 20:55 sereno Sereno 23 18 73 1017 22 N 5.5
Ieri h: 19:55 sereno Sereno 27 16 50 1017 10 N 5.5
Ieri h: 18:55 sereno Sereno 29 16 45 1017 10 O 7.4
Ieri h: 17:55 sereno Sereno 30 17 45 1017 10 O 9.3
Ieri h: 16:55 sereno Sereno 30 17 45 1017 10 O 9.3
Ieri h: 15:55 nuvoloso Nuvoloso 30 16 42 1018 10 N 5.5
Ieri h: 14:55 nuvoloso Nuvoloso 30 17 45 1018 10 N 7.4
Ieri h: 13:55 nuvoloso Nuvoloso 29 17 48 1019 10 N 3.7
Ieri h: 12:55 nuvoloso Nuvoloso 28 17 51 1019 10 N 5.5
Ieri h: 11:55 nuvoloso Nuvoloso 28 17 51 1020 21 E/SE 7.4
Ieri h: 10:55 nuvoloso Nuvoloso 27 17 54 1020 10 N 3.7
Ieri h: 09:55 nuvoloso Nuvoloso 25 18 65 1020 10 N 1.8
Ieri h: 08:55 nuvoloso Nuvoloso 23 17 68 1019 10 N/NE 9.3
Ieri h: 07:55 sereno Sereno 21 17 77 1019 10 N/NE 7.4